TimeCDT,TemperatureF,Dew PointF,Humidity,Sea Level PressureIn,VisibilityMPH,Wind Direction,Wind SpeedMPH,Gust SpeedMPH,PrecipitationIn,Events,Conditions,WindDirDegrees,DateUTC
12:15 AM,43.7,27.5,53,30.13,10.0,ESE,10.4,-,N/A,,Overcast,120,2013-04-21 05:15:00
12:35 AM,43.7,27.9,54,30.13,10.0,SE,9.2,-,N/A,,Overcast,130,2013-04-21 05:35:00
12:55 AM,44.1,27.9,53,30.13,10.0,ESE,9.2,-,N/A,,Overcast,110,2013-04-21 05:55:00
1:15 AM,44.1,27.9,53,30.13,10.0,ESE,5.8,-,N/A,,Overcast,120,2013-04-21 06:15:00
1:35 AM,44.2,27.7,52,30.12,10.0,East,4.6,-,N/A,,Overcast,90,2013-04-21 06:35:00
4:15 AM,43.9,30.2,59,30.08,10.0,ESE,9.2,-,N/A,,Mostly Cloudy,120,2013-04-21 09:15:00
4:35 AM,44.6,30.0,57,30.08,10.0,SE,11.5,-,N/A,,Overcast,140,2013-04-21 09:35:00
4:55 AM,44.8,30.2,57,30.08,10.0,SE,12.7,17.3,N/A,,Overcast,140,2013-04-21 09:55:00
5:15 AM,44.6,30.4,57,30.08,10.0,SSE,10.4,-,N/A,,Mostly Cloudy,150,2013-04-21 10:15:00
5:35 AM,44.4,30.7,59,30.08,10.0,SSE,12.7,-,N/A,,Mostly Cloudy,150,2013-04-21 10:35:00
5:55 AM,44.1,30.9,60,30.07,10.0,SSE,10.4,-,N/A,,Mostly Cloudy,150,2013-04-21 10:55:00
6:15 AM,44.1,31.3,61,30.08,10.0,SSE,9.2,-,N/A,,Overcast,150,2013-04-21 11:15:00
6:35 AM,43.9,31.8,63,30.08,10.0,SE,10.4,-,N/A,,Overcast,140,2013-04-21 11:35:00
6:55 AM,44.1,32.0,63,30.08,10.0,SE,11.5,-,N/A,,Overcast,140,2013-04-21 11:55:00
7:15 AM,44.6,32.0,61,30.08,10.0,SSE,13.8,19.6,N/A,,Overcast,150,2013-04-21 12:15:00
7:35 AM,44.6,32.2,62,30.09,10.0,SSE,11.5,-,N/A,,Mostly Cloudy,150,2013-04-21 12:35:00
7:55 AM,45.1,32.9,62,30.09,10.0,SSE,12.7,17.3,N/A,,Mostly Cloudy,150,2013-04-21 12:55:00
8:15 AM,45.9,33.4,62,30.10,10.0,SSE,15.0,18.4,N/A,,Mostly Cloudy,150,2013-04-21 13:15:00
8:35 AM,46.4,34.0,62,30.10,10.0,SSE,15.0,20.7,N/A,,Light Drizzle,150,2013-04-21 13:35:00
8:55 AM,47.3,34.5,61,30.09,10.0,SSE,11.5,-,N/A,,Overcast,150,2013-04-21 13:55:00
9:15 AM,49.6,35.8,59,30.09,10.0,SSE,11.5,19.6,N/A,,Mostly Cloudy,160,2013-04-21 14:15:00
9:35 AM,50.9,36.1,57,30.08,10.0,SSE,12.7,20.7,N/A,,Mostly Cloudy,160,2013-04-21 14:35:00
9:55 AM,53.1,36.7,54,30.08,10.0,South,12.7,17.3,N/A,,Mostly Cloudy,170,2013-04-21 14:55:00
10:15 AM,53.4,36.5,53,30.08,10.0,South,12.7,21.9,N/A,,Mostly Cloudy,180,2013-04-21 15:15:00
10:35 AM,55.0,37.9,53,30.08,10.0,South,11.5,19.6,N/A,,Mostly Cloudy,170,2013-04-21 15:35:00
10:55 AM,57.2,37.9,49,30.08,10.0,SSE,11.5,20.7,N/A,,Clear,160,2013-04-21 15:55:00
11:15 AM,59.9,38.5,45,30.07,10.0,South,17.3,24.2,N/A,,Clear,170,2013-04-21 16:15:00
11:35 AM,62.2,35.4,37,30.07,10.0,South,18.4,27.6,N/A,,Clear,170,2013-04-21 16:35:00
11:55 AM,63.5,35.1,35,30.06,10.0,South,16.1,24.2,N/A,,Clear,190,2013-04-21 16:55:00
12:15 PM,64.0,34.2,33,30.06,10.0,South,16.1,31.1,N/A,,Scattered Clouds,180,2013-04-21 17:15:00
12:35 PM,65.5,34.2,31,30.05,10.0,South,19.6,29.9,N/A,,Clear,190,2013-04-21 17:35:00
12:55 PM,66.6,33.6,29,30.04,10.0,South,18.4,29.9,N/A,,Clear,190,2013-04-21 17:55:00
1:15 PM,65.3,34.2,31,30.03,10.0,SSW,13.8,26.5,N/A,,Scattered Clouds,200,2013-04-21 18:15:00
1:35 PM,65.3,33.4,31,30.03,10.0,SSW,17.3,23.0,N/A,,Mostly Cloudy,200,2013-04-21 18:35:00
1:55 PM,65.3,34.3,32,30.03,10.0,SSW,15.0,23.0,N/A,,Mostly Cloudy,200,2013-04-21 18:55:00
2:15 PM,66.2,34.9,31,30.02,10.0,South,15.0,21.9,N/A,,Mostly Cloudy,190,2013-04-21 19:15:00
2:35 PM,65.3,34.9,32,30.01,10.0,South,13.8,19.6,N/A,,Overcast,180,2013-04-21 19:35:00
2:55 PM,64.8,33.4,31,30.01,10.0,SSW,11.5,23.0,N/A,,Overcast,200,2013-04-21 19:55:00
3:15 PM,65.1,34.5,32,30.01,10.0,SSW,12.7,19.6,N/A,,Overcast,200,2013-04-21 20:15:00
3:35 PM,65.7,34.3,31,30.00,10.0,SSW,13.8,20.7,N/A,,Overcast,200,2013-04-21 20:35:00
3:55 PM,65.5,34.3,31,30.00,10.0,SSW,10.4,17.3,N/A,,Overcast,200,2013-04-21 20:55:00
4:15 PM,64.4,36.5,36,30.00,10.0,SSW,8.1,-,N/A,Rain,Light Rain,210,2013-04-21 21:15:00
4:35 PM,65.3,36.3,34,29.99,10.0,SSW,10.4,18.4,N/A,,Overcast,200,2013-04-21 21:35:00
4:55 PM,66.4,35.8,32,29.99,10.0,SSW,12.7,20.7,N/A,,Mostly Cloudy,200,2013-04-21 21:55:00
5:15 PM,65.3,36.5,34,29.99,10.0,South,12.7,18.4,N/A,Rain,Light Rain,190,2013-04-21 22:15:00
5:35 PM,67.3,36.5,32,29.99,10.0,South,8.1,-,N/A,,Mostly Cloudy,190,2013-04-21 22:35:00
5:55 PM,67.1,36.1,32,29.99,10.0,South,11.5,16.1,N/A,,Mostly Cloudy,190,2013-04-21 22:55:00
6:15 PM,65.3,38.1,37,29.99,10.0,South,12.7,-,N/A,Thunderstorm,Overcast,180,2013-04-21 23:15:00
6:35 PM,61.2,41.7,49,30.00,10.0,NW,15.0,25.3,N/A,Thunderstorm,Thunderstorm,310,2013-04-21 23:35:00
6:55 PM,61.5,43.0,51,30.01,10.0,NNW,3.5,-,N/A,Thunderstorm,Thunderstorm,330,2013-04-21 23:55:00
7:15 PM,59.0,46.8,64,30.03,10.0,Calm,Calm,-,N/A,,Mostly Cloudy,0,2013-04-22 00:15:00
7:35 PM,58.6,45.1,61,30.04,10.0,NE,6.9,-,N/A,Thunderstorm,Scattered Clouds,40,2013-04-22 00:35:00
7:55 PM,57.6,45.5,64,30.05,10.0,NNE,8.1,-,N/A,Thunderstorm,Scattered Clouds,20,2013-04-22 00:55:00
8:15 PM,57.2,44.1,62,30.06,10.0,NNE,4.6,-,N/A,Thunderstorm,Mostly Cloudy,20,2013-04-22 01:15:00
8:35 PM,56.5,44.6,64,30.07,10.0,Calm,Calm,-,N/A,Rain-Thunderstorm,Light Thunderstorms and Rain,0,2013-04-22 01:35:00
8:55 PM,54.9,45.7,71,30.06,10.0,North,3.5,-,N/A,Rain-Thunderstorm,Light Thunderstorms and Rain,350,2013-04-22 01:55:00
9:15 PM,54.0,45.1,72,30.06,10.0,NNE,5.8,-,N/A,,Scattered Clouds,20,2013-04-22 02:15:00
9:35 PM,53.1,45.5,75,30.09,10.0,NNE,4.6,-,N/A,,Clear,20,2013-04-22 02:35:00
9:55 PM,52.5,45.5,77,30.11,10.0,North,4.6,-,N/A,,Clear,10,2013-04-22 02:55:00
10:15 PM,51.8,45.5,79,30.12,10.0,North,4.6,-,N/A,,Clear,360,2013-04-22 03:15:00
10:35 PM,50.5,44.8,81,30.12,10.0,North,8.1,-,N/A,,Scattered Clouds,360,2013-04-22 03:35:00
10:55 PM,50.0,44.2,81,30.12,10.0,North,11.5,-,N/A,,Mostly Cloudy,360,2013-04-22 03:55:00
11:15 PM,48.0,43.2,83,30.13,10.0,North,6.9,-,N/A,,Mostly Cloudy,350,2013-04-22 04:15:00
11:35 PM,46.9,43.0,86,30.13,10.0,North,6.9,-,N/A,,Scattered Clouds,360,2013-04-22 04:35:00
11:55 PM,46.4,42.8,87,30.13,10.0,North,4.6,-,N/A,,Scattered Clouds,10,2013-04-22 04:55:00